GW5221 Weather Reports


Display with metric or nautical units.
time (UTC)temp
F
wind
direction
speed
MPH
gust
MPH
rain 1hr
in
rain 24hr
in
rain mn
in
humidity
%
barometer
mb
20260906224603 86 29 4.0 8.0 0.00 0.00 0.00 77
20260906224100 86 77 2.0 3.0 0.00 0.00 0.00 76
20260906223555 86 42 3.0 7.0 0.00 0.00 0.00 75
20260906223054 87 24 1.0 2.0 0.00 0.00 0.00 74
20260906222554 87 2 2.0 6.0 0.00 0.00 0.00 73
20260906222052 87 312 0.0 2.0 0.00 0.00 0.00 73
20260906221550 87 344 2.0 4.0 0.00 0.00 0.00 72
20260906221046 87 42 1.0 6.0 0.00 0.00 0.00 72
20260906220540 87 31 2.0 6.0 0.00 0.00 0.00 72
20260906220036 88 56 4.0 7.0 0.00 0.00 0.00 71
20260906215534 88 51 5.0 8.0 0.00 0.00 0.00 70
20260906215033 89 38 1.0 6.0 0.00 0.00 0.00 69
20260906214531 89 222 1.0 2.0 0.00 0.00 0.00 69
20260906214027 89 350 2.0 8.0 0.00 0.00 0.00 67
20260906213526 89 39 2.0 7.0 0.00 0.00 0.00 66
20260906213021 89 252 2.0 10.0 0.00 0.00 0.00 66
20260906212514 89 296 3.0 8.0 0.00 0.00 0.00 65
20260906212009 90 347 1.0 3.0 0.00 0.00 0.00 67
20260906211503 90 322 4.0 9.0 0.00 0.00 0.00 66
20260906210959 90 357 1.0 8.0 0.00 0.00 0.00 67
20260906210449 91 359 2.0 6.0 0.00 0.00 0.00 66
20260906205948 91 305 4.0 7.0 0.00 0.00 0.00 63
20260906205444 91 101 2.0 7.0 0.00 0.00 0.00 63
20260906204940 91 344 3.0 9.0 0.00 0.00 0.00 62
20260906204439 92 46 3.0 7.0 0.00 0.00 0.00 61
20260906203938 91 285 2.0 9.0 0.00 0.00 0.00 62
20260906203434 92 129 4.0 8.0 0.00 0.00 0.00 62
20260906202931 92 325 1.0 6.0 0.00 0.00 0.00 62
20260906202430 92 350 3.0 6.0 0.00 0.00 0.00 61
20260906201925 92 231 1.0 2.0 0.00 0.00 0.00 62
20260906201419 92 225 2.0 7.0 0.00 0.00 0.00 63
20260906200915 92 6 2.0 6.0 0.00 0.00 0.00 63
20260906200406 92 35 3.0 7.0 0.00 0.00 0.00 63
20260906195905 92 74 1.0 8.0 0.00 0.00 0.00 62
20260906195402 93 7 2.0 6.0 0.00 0.00 0.00 63
20260906194857 92 349 4.0 7.0 0.00 0.00 0.00 63
20260906194353 92 317 2.0 7.0 0.00 0.00 0.00 63
20260906193848 93 269 2.0 4.0 0.00 0.00 0.00 63
20260906193344 93 66 1.0 7.0 0.00 0.00 0.00 64
20260906192839 93 251 2.0 9.0 0.00 0.00 0.00 63
20260906192339 93 355 1.0 7.0 0.00 0.00 0.00 64
20260906191838 94 44 6.0 10.0 0.00 0.00 0.00 63
20260906191332 94 47 2.0 4.0 0.00 0.00 0.00 61
20260906190827 94 46 3.0 4.0 0.00 0.00 0.00 62
20260906190326 93 104 1.0 3.0 0.00 0.00 0.00 62
20260906185826 93 46 4.0 8.0 0.00 0.00 0.00 62
20260906185326 93 237 5.0 7.0 0.00 0.00 0.00 63
20260906184820 93 136 4.0 7.0 0.00 0.00 0.00 64
20260906184315 93 215 3.0 4.0 0.00 0.00 0.00 63
20260906183811 93 110 1.0 8.0 0.00 0.00 0.00 64
20260906183307 93 160 4.0 6.0 0.00 0.00 0.00 63
20260906182807 93 149 3.0 7.0 0.00 0.00 0.00 63
20260906182306 91 314 1.0 9.0 0.00 0.00 0.00 66
20260906181758 91 254 6.0 11.0 0.00 0.00 0.00 67
20260906181254 91 165 4.0 8.0 0.00 0.00 0.00 66
20260906180749 91 220 2.0 14.0 0.00 0.00 0.00 69
20260906180244 92 178 4.0 8.0 0.00 0.00 0.00 68
20260906175741 91 33 2.0 9.0 0.00 0.00 0.00 68
20260906175237 92 8 1.0 9.0 0.00 0.00 0.00 68
20260906174735 91 287 3.0 6.0 0.00 0.00 0.00 69
20260906174235 92 60 4.0 6.0 0.00 0.00 0.00 69
20260906173730 91 21 4.0 7.0 0.00 0.00 0.00 68
20260906173226 92 156 4.0 8.0 0.00 0.00 0.00 69
20260906172725 91 353 5.0 7.0 0.00 0.00 0.00 67
20260906172221 91 23 2.0 7.0 0.00 0.00 0.00 71
20260906171720 90 219 3.0 8.0 0.00 0.00 0.00 72
20260906171216 90 75 5.0 9.0 0.00 0.00 0.00 72
20260906170712 89 203 2.0 7.0 0.00 0.00 0.00 74
20260906170207 89 93 4.0 8.0 0.00 0.00 0.00 74
20260906165703 90 71 3.0 9.0 0.00 0.00 0.00 74
20260906165158 90 263 4.0 6.0 0.00 0.00 0.00 74
20260906164657 90 62 4.0 8.0 0.00 0.00 0.00 73
20260906164152 90 95 4.0 7.0 0.00 0.00 0.00 74
20260906163648 90 16 2.0 7.0 0.00 0.00 0.00 74
20260906163145 90 161 4.0 8.0 0.00 0.00 0.00 73
20260906162641 90 57 3.0 8.0 0.00 0.00 0.00 73
20260906162140 90 29 4.0 9.0 0.00 0.00 0.00 73
20260906161636 90 32 5.0 9.0 0.00 0.00 0.00 73
20260906161134 90 322 3.0 4.0 0.00 0.00 0.00 74
20260906160633 90 59 4.0 7.0 0.00 0.00 0.00 74
20260906160132 90 165 3.0 10.0 0.00 0.00 0.00 75
20260906155630 90 60 4.0 8.0 0.00 0.00 0.00 74
20260906155126 90 297 6.0 8.0 0.00 0.00 0.00 74
20260906154621 89 249 3.0 6.0 0.00 0.00 0.00 75
20260906154120 89 195 4.0 7.0 0.00 0.00 0.00 74
20260906153619 89 194 4.0 10.0 0.00 0.00 0.00 74
20260906153114 89 242 3.0 7.0 0.00 0.00 0.00 75
20260906152610 89 45 3.0 6.0 0.00 0.00 0.00 74
20260906152109 89 189 3.0 6.0 0.00 0.00 0.00 75
20260906151604 89 75 4.0 6.0 0.00 0.00 0.00 76
20260906151059 89 107 5.0 7.0 0.00 0.00 0.00 75
20260906150555 89 24 4.0 7.0 0.00 0.00 0.00 76
20260906150049 89 12 3.0 6.0 0.00 0.00 0.00 76
20260906145548 89 198 4.0 7.0 0.00 0.00 0.00 75
20260906145043 89 230 4.0 7.0 0.00 0.00 0.00 76
20260906144538 89 119 2.0 6.0 0.00 0.00 0.00 74
20260906144033 89 97 4.0 6.0 0.00 0.00 0.00 75
20260906143528 89 128 4.0 8.0 0.00 0.00 0.00 75
20260906143025 89 70 2.0 6.0 0.00 0.00 0.00 75
20260906142524 89 196 4.0 7.0 0.00 0.00 0.00 75
20260906142020 89 231 3.0 6.0 0.00 0.00 0.00 75
20260906141519 89 211 2.0 7.0 0.00 0.00 0.00 76
20260906141015 88 338 2.0 8.0 0.00 0.00 0.00 76
20260906140514 88 180 4.0 6.0 0.00 0.00 0.00 77
20260906140014 89 76 4.0 7.0 0.00 0.00 0.00 75
20260906135511 89 196 3.0 8.0 0.00 0.00 0.00 75
20260906135007 89 114 2.0 6.0 0.00 0.00 0.00 75
20260906134502 90 217 3.0 7.0 0.00 0.00 0.00 74
20260906133956 90 348 2.0 4.0 0.00 0.00 0.00 72
20260906133452 90 293 3.0 6.0 0.00 0.00 0.00 70
20260906132948 90 2 2.0 4.0 0.00 0.00 0.00 71
20260906132443 89 117 1.0 8.0 0.00 0.00 0.00 71
20260906131938 90 331 2.0 4.0 0.00 0.00 0.00 71
20260906131433 90 228 1.0 6.0 0.00 0.00 0.00 71
20260906130929 89 31 2.0 4.0 0.00 0.00 0.00 72
20260906130428 89 243 2.0 4.0 0.00 0.00 0.00 73
20260906125928 88 6 1.0 8.0 0.00 0.00 0.00 74
20260906125426 88 208 2.0 7.0 0.00 0.00 0.00 74
20260906124925 88 343 2.0 3.0 0.00 0.00 0.00 75
20260906124421 88 20 2.0 8.0 0.00 0.00 0.00 75
20260906123916 88 187 4.0 9.0 0.00 0.00 0.00 75
20260906123415 88 21 1.0 4.0 0.00 0.00 0.00 75
20260906122910 88 44 1.0 4.0 0.00 0.00 0.00 75
20260906122405 87 14 1.0 7.0 0.00 0.00 0.00 75
20260906121902 87 336 2.0 7.0 0.00 0.00 0.00 76
20260906121357 86 45 2.0 7.0 0.00 0.00 0.00 77
20260906120853 86 72 2.0 7.0 0.00 0.00 0.00 79
20260906120349 86 113 3.0 4.0 0.00 0.00 0.00 79
20260906115845 85 157 3.0 4.0 0.00 0.00 0.00 80
20260906115340 85 108 4.0 7.0 0.00 0.00 0.00 80
20260906114839 85 350 2.0 7.0 0.00 0.00 0.00 81
20260906114335 85 125 2.0 6.0 0.00 0.00 0.00 81
20260906113830 86 176 2.0 6.0 0.00 0.00 0.00 81
20260906113329 85 42 1.0 2.0 0.00 0.00 0.00 83
20260906112824 85 336 1.0 2.0 0.00 0.00 0.00 83
20260906112320 84 357 1.0 2.0 0.00 0.00 0.00 83
20260906111815 84 334 1.0 4.0 0.00 0.00 0.00 84
20260906111314 84 344 0.0 2.0 0.00 0.00 0.00 85
20260906110809 83 352 1.0 3.0 0.00 0.00 0.00 85
20260906110305 83 37 0.0 2.0 0.00 0.00 0.00 85
20260906105804 83 357 0.0 2.0 0.00 0.00 0.00 85
20260906105300 83 334 1.0 3.0 0.00 0.00 0.00 85
20260906104755 83 352 1.0 2.0 0.00 0.00 0.00 85
20260906104253 83 79 1.0 3.0 0.00 0.00 0.00 85
20260906103752 83 330 0.0 2.0 0.00 0.00 0.00 85
20260906103246 83 350 1.0 2.0 0.00 0.00 0.00 85
20260906102742 83 8 1.0 3.0 0.00 0.00 0.00 85
20260906102240 83 284 0.0 2.0 0.00 0.00 0.00 85
20260906101736 83 345 0.0 4.0 0.00 0.00 0.00 85
20260906101236 83 249 1.0 2.0 0.00 0.00 0.00 85
20260906100732 83 332 0.0 4.0 0.00 0.00 0.00 85
20260906100231 83 340 2.0 3.0 0.00 0.00 0.00 85
20260906095727 83 334 1.0 2.0 0.00 0.00 0.00 85
20260906095222 83 188 1.0 2.0 0.00 0.00 0.00 85
20260906094720 83 215 1.0 2.0 0.00 0.00 0.00 85
20260906094210 83 297 1.0 2.0 0.00 0.00 0.00 85
20260906093707 83 292 0.0 1.0 0.00 0.00 0.00 86
20260906093201 83 104 1.0 2.0 0.00 0.00 0.00 86
20260906092657 83 43 1.0 2.0 0.00 0.00 0.00 86
20260906092156 83 17 0.0 1.0 0.00 0.00 0.00 85
20260906091652 83 321 0.0 2.0 0.00 0.00 0.00 85
20260906091148 83 346 0.0 1.0 0.00 0.00 0.00 85
20260906090644 83 349 0.0 1.0 0.00 0.00 0.00 85
20260906090143 83 16 1.0 1.0 0.00 0.00 0.00 85
20260906085642 83 343 1.0 3.0 0.00 0.00 0.00 85
20260906085137 83 329 0.0 2.0 0.00 0.00 0.00 84
20260906084637 83 340 1.0 2.0 0.00 0.00 0.00 84
20260906084137 83 337 1.0 1.0 0.00 0.00 0.00 84
20260906083632 83 347 0.0 1.0 0.00 0.00 0.00 84
20260906083126 83 0 1.0 2.0 0.00 0.00 0.00 84
20260906082622 83 348 0.0 6.0 0.00 0.00 0.00 84
20260906082117 83 340 0.0 2.0 0.00 0.00 0.00 84
20260906081613 83 16 1.0 2.0 0.00 0.00 0.00 84
20260906081103 83 327 1.0 2.0 0.00 0.00 0.00 84
20260906080600 83 296 1.0 2.0 0.00 0.00 0.00 83
20260906080055 83 326 2.0 3.0 0.00 0.00 0.00 83
20260906075554 83 346 0.0 2.0 0.00 0.00 0.00 83
20260906075049 83 199 1.0 2.0 0.00 0.00 0.00 83
20260906074544 83 344 1.0 3.0 0.00 0.00 0.00 83
20260906074043 83 352 2.0 3.0 0.00 0.00 0.00 83
20260906073538 83 38 1.0 4.0 0.00 0.00 0.00 83
20260906073034 83 329 0.0 1.0 0.00 0.00 0.00 83
20260906072529 83 339 1.0 6.0 0.00 0.00 0.00 83
20260906072025 83 358 1.0 2.0 0.00 0.00 0.00 83
20260906071521 83 339 1.0 3.0 0.00 0.00 0.00 83
20260906071016 83 233 2.0 3.0 0.00 0.00 0.00 83
20260906070512 83 213 2.0 4.0 0.00 0.00 0.00 83
20260906070008 83 293 1.0 3.0 0.00 0.00 0.00 83
20260906065507 83 24 1.0 4.0 0.00 0.00 0.00 83
20260906065003 83 87 2.0 4.0 0.00 0.00 0.00 84
20260906064459 83 345 1.0 4.0 0.00 0.00 0.00 84
20260906063953 83 347 2.0 3.0 0.00 0.00 0.00 84
20260906063449 83 334 3.0 4.0 0.00 0.00 0.00 84
20260906062949 83 190 2.0 3.0 0.00 0.00 0.00 85
20260906062444 83 359 1.0 2.0 0.00 0.00 0.00 85
20260906061939 83 43 2.0 2.0 0.00 0.00 0.00 85
20260906061435 83 69 2.0 6.0 0.00 0.00 0.00 85
20260906060929 83 356 1.0 3.0 0.00 0.00 0.00 85
20260906060426 83 52 1.0 8.0 0.00 0.00 0.00 85
20260906055923 83 282 1.0 2.0 0.00 0.00 0.00 85
20260906055418 83 21 1.0 7.0 0.00 0.00 0.00 85
20260906054913 83 334 1.0 3.0 0.00 0.00 0.00 85
20260906054408 83 78 0.0 1.0 0.00 0.00 0.00 85
20260906053904 83 321 1.0 2.0 0.00 0.00 0.00 85
20260906053400 83 345 0.0 3.0 0.00 0.00 0.00 85
20260906052855 83 26 1.0 2.0 0.00 0.00 0.00 85
20260906052352 83 116 2.0 4.0 0.00 0.00 0.00 85
20260906051848 83 30 1.0 3.0 0.00 0.00 0.00 85
20260906051348 83 2 1.0 3.0 0.00 0.00 0.00 85
20260906050844 83 30 2.0 2.0 0.00 0.00 0.00 85
20260906050339 83 20 2.0 3.0 0.00 0.00 0.00 85
20260906045837 83 3 2.0 6.0 0.00 0.00 0.00 84
20260906045332 84 305 0.0 2.0 0.00 0.00 0.00 84
20260906044828 84 326 0.0 8.0 0.00 0.00 0.00 84
20260906044323 84 344 2.0 4.0 0.00 0.00 0.00 84
20260906043819 84 244 1.0 3.0 0.00 0.00 0.00 84
20260906043315 84 359 1.0 2.0 0.00 0.00 0.00 84
20260906042814 84 78 2.0 3.0 0.00 0.00 0.00 84
20260906042313 84 3 1.0 4.0 0.00 0.00 0.00 83
20260906041809 84 74 1.0 4.0 0.00 0.00 0.00 83
20260906041304 84 107 0.0 3.0 0.00 0.00 0.00 83
20260906040759 84 119 2.0 6.0 0.00 0.00 0.00 83
20260906040255 84 23 1.0 7.0 0.00 0.00 0.00 83
20260906035750 84 4 2.0 4.0 0.00 0.00 0.00 83
20260906035246 84 332 2.0 3.0 0.00 0.00 0.00 83
20260906034745 84 139 1.0 6.0 0.00 0.00 0.00 83
20260906034240 84 15 2.0 4.0 0.00 0.00 0.00 83
20260906033736 84 356 0.0 4.0 0.00 0.00 0.00 83
20260906033235 84 19 1.0 2.0 0.00 0.00 0.00 83
20260906032732 84 337 2.0 4.0 0.00 0.00 0.00 83
20260906032232 84 69 3.0 4.0 0.00 0.00 0.00 83
20260906031727 84 355 1.0 4.0 0.00 0.00 0.00 83
20260906031223 84 66 1.0 4.0 0.00 0.00 0.00 83
20260906030723 84 7 1.0 3.0 0.00 0.00 0.00 82
20260906030218 84 10 1.0 4.0 0.00 0.00 0.00 82
20260906025717 84 4 3.0 4.0 0.00 0.00 0.00 82
20260906025212 84 104 1.0 4.0 0.00 0.00 0.00 82
20260906024711 84 19 2.0 3.0 0.00 0.00 0.00 82
20260906024210 84 335 1.0 3.0 0.00 0.00 0.00 81
20260906023707 84 51 3.0 7.0 0.00 0.00 0.00 81
20260906023207 84 106 2.0 4.0 0.00 0.00 0.00 81
20260906022702 84 21 0.0 3.0 0.00 0.00 0.00 81
20260906022157 84 355 2.0 4.0 0.00 0.00 0.00 81
20260906021653 85 306 3.0 6.0 0.00 0.00 0.00 80
20260906021151 85 31 2.0 3.0 0.00 0.00 0.00 80
20260906020646 85 350 1.0 6.0 0.00 0.00 0.00 80
20260906020142 85 10 4.0 9.0 0.00 0.00 0.00 79
20260906015636 85 15 1.0 4.0 0.00 0.00 0.00 79
20260906015135 85 56 2.0 6.0 0.00 0.00 0.00 79
20260906014634 85 350 2.0 2.0 0.00 0.00 0.00 79
20260906014130 85 359 2.0 4.0 0.00 0.00 0.00 79
20260906013626 85 27 4.0 10.0 0.00 0.00 0.00 78
20260906013121 85 1 2.0 7.0 0.00 0.00 0.00 78
20260906012616 85 337 0.0 2.0 0.00 0.00 0.00 78
20260906012116 85 77 3.0 7.0 0.00 0.00 0.00 78
20260906011613 85 16 1.0 3.0 0.00 0.00 0.00 78
20260906011112 85 93 3.0 6.0 0.00 0.00 0.00 78
20260906010608 85 359 2.0 6.0 0.00 0.00 0.00 78
20260906010104 85 98 4.0 4.0 0.00 0.00 0.00 78
20260906005603 85 19 2.0 6.0 0.00 0.00 0.00 77
20260906005102 85 42 6.0 8.0 0.00 0.00 0.00 77
20260906004602 85 23 3.0 7.0 0.00 0.00 0.00 77
20260906004057 85 353 3.0 4.0 0.00 0.00 0.00 77
20260906003552 85 12 2.0 4.0 0.00 0.00 0.00 77
20260906003048 85 1 3.0 7.0 0.00 0.00 0.00 76
20260906002542 85 223 1.0 3.0 0.00 0.00 0.00 77
20260906002037 85 356 2.0 6.0 0.00 0.00 0.00 77
20260906001533 85 83 2.0 7.0 0.00 0.00 0.00 77
20260906001027 85 324 2.0 4.0 0.00 0.00 0.00 77
20260906000523 85 63 2.0 3.0 0.00 0.00 0.00 78
20260906000018 85 356 1.0 2.0 0.00 0.00 0.00 78
20260905235511 85 349 1.0 4.0 0.00 0.00 0.00 78
20260905235006 85 11 4.0 8.0 0.00 0.00 0.00 79
20260905234503 85 24 1.0 4.0 0.00 0.00 0.00 79
20260905233956 85 34 3.0 8.0 0.00 0.00 0.00 79
20260905233452 85 139 2.0 9.0 0.00 0.00 0.00 79
20260905232950 85 45 5.0 7.0 0.00 0.00 0.00 78
20260905232447 85 66 4.0 6.0 0.00 0.00 0.00 79
20260905231942 85 15 1.0 4.0 0.00 0.00 0.00 79
20260905231438 86 108 2.0 3.0 0.00 0.00 0.00 79
20260905230934 86 346 1.0 4.0 0.00 0.00 0.00 79
20260905230432 86 341 2.0 6.0 0.00 0.00 0.00 79
20260905225931 86 352 1.0 4.0 0.00 0.00 0.00 78
20260905225426 86 336 2.0 7.0 0.00 0.00 0.00 78
20260905224921 86 63 1.0 8.0 0.00 0.00 0.00 78